Hillsdale, MI

5:34 AM EST on January 18, 2018 (GMT -0500)
Hillsdale Municipal

Weather History for KJYM - March, 2014

Change the Weather History Date:

Monday, March 17, 2014

  Actual Average Record
Temperature  
Mean Temperature 18 °F -  
Max Temperature 29 °F 44 °F 75 °F (2012)
Min Temperature 8 °F 22 °F 5 °F (1949)
Degree Days  
Heating Degree Days 46    
Moisture  
Dew Point 7 °F    
Average Humidity 62    
Maximum Humidity 80    
Minimum Humidity 46    
Precipitation  
Precipitation 0.00 in - - ()
Sea Level Pressure  
Sea Level Pressure 29.97 in    
Wind  
Wind Speed 8 mph (East)    
Max Wind Speed 16 mph    
Max Gust Speed 22 mph    
Visibility 10 miles    
Events      
Averages and records for this station are not official NWS values.
T = Trace of Precipitation, MM = Missing Value Source: NWS Daily Summary

Daily Weather History Graph

Daily Weather History Graph

Search for Another Location

Airport or City:

Trip Planner

Search our weather history database for the weather conditions in past years. The results will help you decide how hot, cold, wet, or windy it might be!

Date:

Astronomy

Mar. 17, 2014 Rise Set
Actual Time 7:46 AM EDT 7:47 PM EDT
Civil Twilight 7:19 AM EDT 8:15 PM EDT
Nautical Twilight 6:46 AM EDT 8:47 PM EDT
Astronomical Twilight 6:13 AM EDT 9:20 PM EDT
Moon 9:04 PM EDT (3/17) 8:00 AM EDT (3/17)
Length of Visible Light 12h 55m
Length of Day
12h 00m
Full, 99% of the Moon is Illuminated
Mar 17
Full
Mar 23
Last Quarter
Mar 30
New
Apr 7
First Quarter
Apr 15
Full

Hourly Weather History & Observations

Time (EDT) Temp. Windchill Dew Point Humidity Pressure Visibility Wind Dir Wind Speed Gust Speed Precip Events Conditions
12:15 AM 13.3 °F 1.1 °F -1.1 °F 53% 30.11 in 10.0 mi East 9.2 mph - N/A   Clear
12:34 AM 12.2 °F 2.9 °F -0.0 °F 58% 30.11 in 10.0 mi East 5.8 mph - N/A   Clear
12:54 AM 11.7 °F 3.7 °F -0.0 °F 59% 30.11 in 10.0 mi East 4.6 mph - N/A   Clear
1:15 AM 11.7 °F 2.3 °F -0.0 °F 59% 30.10 in 10.0 mi ENE 5.8 mph - N/A   Clear
1:34 AM 11.1 °F - 0.1 °F 61% 30.10 in 10.0 mi Calm Calm - N/A   Clear
1:55 AM 10.8 °F 2.7 °F 0.3 °F 63% 30.09 in 10.0 mi NE 4.6 mph - N/A   Clear
2:15 AM 10.6 °F 2.5 °F 0.1 °F 63% 30.09 in 10.0 mi NE 4.6 mph - N/A   Clear
2:34 AM 10.2 °F 0.6 °F -0.0 °F 63% 30.09 in 10.0 mi NE 5.8 mph - N/A   Clear
2:55 AM 9.9 °F 0.2 °F -0.2 °F 64% 30.10 in 10.0 mi NNE 5.8 mph - N/A   Clear
3:15 AM 9.1 °F -1.9 °F -0.0 °F 66% 30.07 in 10.0 mi NE 6.9 mph - N/A   Clear
3:34 AM 8.8 °F -3.5 °F -0.0 °F 67% 30.06 in 10.0 mi NE 8.1 mph - N/A   Clear
3:55 AM 8.8 °F -1.1 °F 0.3 °F 69% 30.05 in 10.0 mi NE 5.8 mph - N/A   Clear
4:14 AM 8.8 °F -1.1 °F 0.1 °F 68% 30.05 in 10.0 mi NE 5.8 mph - N/A   Clear
4:34 AM 8.2 °F -3.0 °F -0.0 °F 69% 30.04 in 10.0 mi ENE 6.9 mph - N/A   Clear
4:55 AM 8.2 °F -3.0 °F 0.1 °F 70% 30.03 in 10.0 mi ENE 6.9 mph - N/A   Clear
5:14 AM 8.2 °F -4.1 °F 0.1 °F 70% 30.02 in 10.0 mi ENE 8.1 mph - N/A   Clear
5:34 AM 8.8 °F -3.5 °F -0.0 °F 67% 30.02 in 10.0 mi ENE 8.1 mph - N/A   Clear
5:54 AM 8.2 °F -5.1 °F -0.0 °F 69% 30.03 in 10.0 mi ENE 9.2 mph - N/A   Clear
6:14 AM 8.2 °F -3.0 °F 0.1 °F 70% 30.02 in 10.0 mi ENE 6.9 mph - N/A   Clear
6:35 AM 8.2 °F -4.1 °F 0.5 °F 71% 30.02 in 10.0 mi East 8.1 mph - N/A   Clear
6:54 AM 8.1 °F -4.3 °F 0.5 °F 71% 30.02 in 10.0 mi East 8.1 mph - N/A   Clear
7:14 AM 8.1 °F -4.3 °F 0.7 °F 72% 30.01 in 10.0 mi ENE 8.1 mph - N/A   Clear
7:35 AM 8.1 °F -5.3 °F 0.9 °F 72% 30.00 in 10.0 mi East 9.2 mph - N/A   Clear
7:54 AM 8.2 °F -4.1 °F 0.7 °F 71% 30.00 in 10.0 mi East 8.1 mph - N/A   Clear
8:14 AM 9.1 °F -5.6 °F 1.0 °F 70% 30.00 in 10.0 mi East 11.5 mph - N/A   Clear
8:35 AM 10.6 °F -3.8 °F 1.9 °F 68% 29.99 in 10.0 mi East 11.5 mph - N/A   Clear
8:54 AM 11.8 °F -3.0 °F 3.2 °F 68% 29.99 in 10.0 mi East 12.7 mph - N/A   Clear
9:15 AM 13.6 °F -0.7 °F 4.8 °F 68% 29.99 in 10.0 mi East 12.7 mph - N/A   Clear
9:35 AM 14.7 °F -1.1 °F 5.4 °F 66% 29.99 in 10.0 mi East 16.1 mph 20.7 mph N/A   Clear
9:54 AM 15.4 °F 1.0 °F 5.4 °F 64% 29.99 in 10.0 mi East 13.8 mph 21.9 mph N/A   Clear
10:15 AM 16.2 °F 0.8 °F 5.5 °F 63% 29.98 in 10.0 mi East 16.1 mph - N/A   Clear
10:34 AM 16.9 °F 2.8 °F 6.1 °F 63% 29.98 in 10.0 mi East 13.8 mph - N/A   Clear
10:54 AM 18.1 °F 5.0 °F 7.2 °F 62% 29.98 in 10.0 mi ESE 12.7 mph - N/A   Clear
11:15 AM 18.9 °F 7.2 °F 8.1 °F 63% 29.98 in 10.0 mi ESE 10.4 mph - N/A   Clear
11:34 AM 19.8 °F 7.7 °F 8.2 °F 61% 29.99 in 10.0 mi East 11.5 mph - N/A   Clear
11:54 AM 19.9 °F 6.7 °F 8.2 °F 61% 29.98 in 10.0 mi ESE 13.8 mph - N/A   Clear
12:15 PM 21.0 °F 9.3 °F 9.1 °F 60% 29.97 in 10.0 mi East 11.5 mph - N/A   Clear
12:34 PM 22.5 °F 12.4 °F 10.9 °F 61% 29.97 in 10.0 mi ESE 9.2 mph - N/A   Clear
12:54 PM 23.5 °F 13.0 °F 10.0 °F 56% 29.96 in 10.0 mi ESE 10.4 mph - N/A   Clear
1:14 PM 24.3 °F 14.6 °F 10.9 °F 57% 29.96 in 10.0 mi East 9.2 mph - N/A   Clear
1:34 PM 25.2 °F 14.4 °F 10.2 °F 53% 29.95 in 10.0 mi East 11.5 mph - N/A   Clear
1:55 PM 25.7 °F 15.7 °F 10.8 °F 53% 29.93 in 10.0 mi East 10.4 mph - N/A   Clear
2:14 PM 26.4 °F 17.3 °F 10.9 °F 52% 29.92 in 10.0 mi ESE 9.2 mph - N/A   Clear
2:35 PM 26.2 °F 16.4 °F 10.9 °F 52% 29.90 in 10.0 mi East 10.4 mph - N/A   Clear
2:55 PM 27.1 °F 20.7 °F 10.4 °F 49% 29.90 in 10.0 mi ESE 5.8 mph - N/A   Clear
3:14 PM 27.5 °F 20.2 °F 10.0 °F 48% 29.89 in 10.0 mi East 6.9 mph - N/A   Clear
3:35 PM 28.4 °F 19.7 °F 10.2 °F 47% 29.88 in 10.0 mi East 9.2 mph - N/A   Clear
3:54 PM 28.6 °F 21.5 °F 10.2 °F 46% 29.88 in 10.0 mi ESE 6.9 mph - N/A   Clear
4:14 PM 28.9 °F 20.4 °F 11.7 °F 49% 29.88 in 10.0 mi East 9.2 mph - N/A   Clear
4:35 PM 28.9 °F 20.4 °F 11.7 °F 49% 29.88 in 10.0 mi East 9.2 mph - N/A   Clear
4:54 PM 29.3 °F 20.8 °F 12.4 °F 49% 29.87 in 10.0 mi East 9.2 mph - N/A   Clear
5:14 PM 29.8 °F 23.0 °F 13.1 °F 50% 29.87 in 10.0 mi ESE 6.9 mph - N/A   Clear
5:35 PM 29.7 °F 21.3 °F 13.3 °F 51% 29.87 in 10.0 mi East 9.2 mph - N/A   Clear
5:54 PM 29.7 °F 20.7 °F 11.8 °F 48% 29.87 in 10.0 mi ESE 10.4 mph - N/A   Clear
6:14 PM 29.5 °F 21.1 °F 12.2 °F 49% 29.87 in 10.0 mi ESE 9.2 mph - N/A   Clear
6:35 PM 29.3 °F 21.5 °F 13.6 °F 52% 29.88 in 10.0 mi ESE 8.1 mph - N/A   Clear
6:54 PM 28.9 °F 19.2 °F 13.5 °F 52% 29.87 in 10.0 mi ESE 11.5 mph - N/A   Clear
7:14 PM 28.4 °F 20.4 °F 14.9 °F 57% 29.87 in 10.0 mi SE 8.1 mph - N/A   Clear
7:35 PM 27.3 °F 19.1 °F 14.7 °F 59% 29.88 in 10.0 mi SE 8.1 mph - N/A   Clear
7:54 PM 26.4 °F 19.8 °F 15.6 °F 64% 29.87 in 10.0 mi SE 5.8 mph - N/A   Clear
8:15 PM 25.9 °F 18.2 °F 14.7 °F 63% 29.87 in 10.0 mi ESE 6.9 mph - N/A   Clear
8:34 PM 25.3 °F 16.0 °F 13.6 °F 61% 29.88 in 10.0 mi SE 9.2 mph - N/A   Clear
8:54 PM 24.6 °F 15.1 °F 13.3 °F 62% 29.88 in 10.0 mi ESE 9.2 mph - N/A   Clear
9:15 PM 24.3 °F 15.4 °F 14.2 °F 65% 29.89 in 10.0 mi SE 8.1 mph - N/A   Clear
9:34 PM 23.9 °F 15.0 °F 15.3 °F 70% 29.90 in 10.0 mi ESE 8.1 mph - N/A   Clear
9:54 PM 23.5 °F 13.7 °F 15.3 °F 71% 29.90 in 10.0 mi ESE 9.2 mph - N/A   Clear
10:15 PM 23.2 °F 14.1 °F 13.8 °F 67% 29.90 in 10.0 mi ESE 8.1 mph - N/A   Clear
10:34 PM 22.5 °F 13.2 °F 13.8 °F 69% 29.91 in 10.0 mi ESE 8.1 mph - N/A   Clear
10:54 PM 22.5 °F 12.4 °F 14.7 °F 72% 29.90 in 10.0 mi ESE 9.2 mph - N/A   Clear
11:15 PM 22.5 °F 13.2 °F 16.0 °F 76% 29.91 in 10.0 mi ESE 8.1 mph - N/A   Clear
11:34 PM 22.5 °F 13.2 °F 16.2 °F 77% 29.90 in 10.0 mi ESE 8.1 mph - N/A   Clear
11:54 PM 22.5 °F 12.4 °F 17.2 °F 80% 29.90 in 10.0 mi ESE 9.2 mph - N/A   Clear